Location: Cazavet
(43.0017°N, 1.0431°E)
Time: 09:36:02
(UTC+00:00)

Cosmos 2084 Rocket - Pass Details

Date: 18 January 2026
Orbit: 542 x 571 km, 62.8° (Epoch: 10 February)

Event Time Altitude Azimuth Distance (km) Brightness Sun altitude
Exits shadow 05:50:32 15° 340° (NNW) 1,594 5.4 -16.6°
Maximum altitude 05:53:47 41° 47° (NE) 841 4.5 -16.0°
Drops below altitude 10° 05:57:46 10° 118° (ESE) 1,870 7.3 -15.3°
Sets 06:00:06 0° 125° (SE) 2,764 8.3 -14.9°
